Twin Falls, ID

4:43 AM MDT on April 27, 2017 (GMT -0600)
Joslin Field-Magic Valley Regional

Weather History for KTWF - June, 2013

Change the Weather History Date:

Thursday, June 13, 2013

  Actual Average Record
Temperature  
Mean Temperature 62 °F -  
Max Temperature 74 °F 79 °F 92 °F (1987)
Min Temperature 50 °F 49 °F 35 °F (1993)
Degree Days  
Heating Degree Days 3 3  
Month to date heating degree days 13 58  
Since 1 June heating degree days 13 58  
Since 1 July heating degree days 5695 6142  
Cooling Degree Days 0 2  
Month to date cooling degree days 69 23  
Year to date cooling degree days 94 45  
Since 1 June cooling degree days 69 23  
Growing Degree Days 10 (Base 50)    
Moisture  
Dew Point 36 °F    
Average Humidity 43    
Maximum Humidity 61    
Minimum Humidity 25    
Precipitation  
Precipitation T in 0.04 in 0.39 in (1992)
Month to date precipitation T 0.51  
Year to date precipitation 2.85 5.84  
Sea Level Pressure  
Sea Level Pressure 29.89 in    
Wind  
Wind Speed 15 mph (WSW)    
Max Wind Speed 30 mph    
Max Gust Speed 37 mph    
Visibility 10 miles    
Events Rain    
T = Trace of Precipitation, MM = Missing Value Source: NWS Daily Summary

Daily Weather History Graph

Daily Weather History Graph

Search for Another Location

Airport or City:

Trip Planner

Search our weather history database for the weather conditions in past years. The results will help you decide how hot, cold, wet, or windy it might be!

Date:

Astronomy

Jun. 13, 2013 Rise Set
Actual Time 6:00 AM MDT 9:16 PM MDT
Civil Twilight 5:25 AM MDT 9:51 PM MDT
Nautical Twilight 4:40 AM MDT 10:36 PM MDT
Astronomical Twilight 3:45 AM MDT 11:30 PM MDT
Moon 10:45 AM MDT (6/13) No Moon Set
Length of Visible Light 16h 25m
Length of Day
15h 16m
Waxing Crescent, 22% of the Moon is Illuminated
Jun 13
Waxing Crescent
Jun 16
First Quarter
Jun 23
Full
Jun 29
Last Quarter
Jul 8
New

Hourly Weather History & Observations

Time (MDT) Temp. Dew Point Humidity Pressure Visibility Wind Dir Wind Speed Gust Speed Precip Events Conditions
12:53 AM 66.0 °F 46.0 °F 48% 29.73 in 10.0 mi SE 8.1 mph - N/A   Partly Cloudy
1:18 AM 69.8 °F 44.6 °F 40% 29.94 in 9.0 mi SSW 19.6 mph 34.5 mph 0.00 in Rain Light Rain
1:53 AM 59.0 °F 43.0 °F 55% 29.79 in 10.0 mi West 16.1 mph 24.2 mph 0.00 in   Clear
2:53 AM 55.9 °F 42.1 °F 60% 29.81 in 10.0 mi SSW 12.7 mph - N/A   Clear
3:53 AM 55.0 °F 37.9 °F 53% 29.82 in 10.0 mi SSW 15.0 mph - N/A   Clear
4:53 AM 54.0 °F 35.1 °F 49% 29.83 in 10.0 mi SSW 10.4 mph - N/A   Clear
5:53 AM 50.0 °F 35.1 °F 57% 29.85 in 10.0 mi South 10.4 mph - N/A   Clear
6:53 AM 52.0 °F 35.1 °F 53% 29.86 in 10.0 mi SSW 15.0 mph - N/A   Clear
7:53 AM 57.0 °F 37.0 °F 47% 29.86 in 10.0 mi SW 15.0 mph 24.2 mph N/A   Clear
8:53 AM 60.1 °F 37.0 °F 42% 29.88 in 10.0 mi SW 19.6 mph 26.5 mph N/A   Clear
9:53 AM 64.0 °F 37.9 °F 38% 29.88 in 10.0 mi West 20.7 mph 27.6 mph N/A   Clear
10:53 AM 68.0 °F 36.0 °F 31% 29.87 in 10.0 mi West 18.4 mph 31.1 mph N/A   Clear
11:53 AM 69.1 °F 35.1 °F 29% 29.88 in 10.0 mi West 17.3 mph 27.6 mph N/A   Clear
12:53 PM 70.0 °F 34.0 °F 27% 29.87 in 10.0 mi West 16.1 mph 23.0 mph N/A   Clear
1:53 PM 71.1 °F 34.0 °F 26% 29.88 in 10.0 mi WNW 15.0 mph 21.9 mph N/A   Clear
2:53 PM 70.0 °F 33.1 °F 26% 29.88 in 10.0 mi West 12.7 mph 26.5 mph N/A   Mostly Cloudy
3:53 PM 70.0 °F 32.0 °F 25% 29.88 in 10.0 mi WNW 20.7 mph 29.9 mph N/A   Mostly Cloudy
4:53 PM 66.0 °F 34.0 °F 30% 29.92 in 10.0 mi West 11.5 mph - N/A   Scattered Clouds
5:53 PM 63.0 °F 35.1 °F 35% 29.94 in 9.0 mi West 20.7 mph 31.1 mph 0.00 in Rain Light Rain
6:53 PM 68.0 °F 32.0 °F 26% 29.89 in 10.0 mi West 16.1 mph 24.2 mph 0.00 in   Clear
7:53 PM 66.0 °F 30.9 °F 27% 29.90 in 10.0 mi West 17.3 mph 21.9 mph N/A   Clear
8:53 PM 61.0 °F 32.0 °F 34% 29.94 in 10.0 mi West 11.5 mph 19.6 mph N/A   Clear
9:53 PM 55.9 °F 34.0 °F 44% 29.98 in 10.0 mi West 15.0 mph - N/A   Clear
10:53 PM 53.1 °F 34.0 °F 48% 30.02 in 10.0 mi WSW 9.2 mph - N/A   Clear
11:53 PM 53.1 °F 34.0 °F 48% 30.04 in 10.0 mi WSW 10.4 mph - N/A   Partly Cloudy